[[{"header":{"parameterUnit":"m.s-1","parameterCategory":1,"la1":30.2991,"la2":30.254,"lo1":-89.0895,"lo2":-89.0444,"dy":0.0017,"dx":0.0017,"nx":28,"ny":28,"refTime":"2023-08-05T03:00:00:Z","depth":0,"parameterNumber":2,"parameterNumberName":"U-component_of_WINDS"},"data":[0,0,0,0,0,0,0,0,0,0,0,0,0,0,0,0,0,0,0,0,0,0,0,0,0,0,0,0,0,0,0,0,0,0,0,0,0,0,0,0,0,0,0,0,0,0,0,0,0,0,0,0,0,0,0,0,0,0,1.7596,1.7597,0,1.7669,1.767,1.7671,1.7658,1.7657,1.7655,1.7654,1.7735,1.7738,1.7742,0,0,0,0,0,0,0,0,0,0,0,0,0,1.7451,1.7454,1.7596,1.7597,1.7598,1.7669,1.767,1.7671,1.7658,1.7656,1.7655,1.7653,1.7734,1.7738,1.7742,0,0,0,0,0,0,0,0,0,0,0,0,0,1.7518,1.7455,1.7596,1.76,1.7601,1.7669,1.767,1.7672,1.7658,1.7656,1.7654,1.7653,1.7733,1.7737,1.7742,1.7813,0,0,1.7758,1.776,0,0,0,0,0,0,0,0,1.7515,1.7524,1.7598,1.76,1.7601,1.7652,1.7649,1.7719,1.7659,1.7637,1.7654,1.7652,1.7709,1.7716,1.7735,1.7817,1.7821,1.7758,1.7762,1.7764,1.7765,0,0,0,0,0,0,0,1.751,1.7521,1.7625,1.7599,1.7601,1.76,1.7607,1.7662,1.7684,1.7639,1.7638,1.7646,1.771,1.773,1.7736,1.7822,1.7758,1.7763,1.7766,1.7768,1.7969,1.7971,0,0,0,0,0,0,1.7503,1.7517,1.7623,1.7627,1.7552,1.7604,1.7612,1.7638,1.7683,1.7688,1.7648,1.7645,1.7722,1.773,1.7739,1.7827,1.7764,1.7768,1.7771,1.7967,1.7969,1.7972,0,0,0,0,0,0,1.75,1.7513,1.762,1.7572,1.7585,1.7609,1.7638,1.764,1.766,1.769,1.7694,1.7664,1.7721,1.7732,1.7795,1.7829,1.7771,1.7775,1.7964,1.7968,1.7971,1.8002,0,0,0,0,0,0,1.7496,1.7512,1.7537,1.7573,1.7588,1.7673,1.764,1.7643,1.7668,1.7666,1.7706,1.7711,1.772,1.7788,1.78,1.7835,1.7779,1.7961,1.7966,1.797,1.7998,1.8006,1.8013,0,0,0,0,0,1.7491,1.7544,1.7539,1.7552,1.762,1.7675,1.7684,1.7692,1.7671,1.7698,1.7718,1.771,1.7823,1.7794,1.7808,1.7845,1.7959,1.7964,1.7969,1.7994,1.8004,1.8012,0,0,0,0,0,0,1.7514,1.7549,1.7543,1.7609,1.7639,1.7672,1.7707,1.7702,1.774,1.7736,1.7746,1.7755,1.782,1.7839,1.7806,1.7918,1.7889,1.7897,1.7903,1.7912,1.792,1.7915,1.7783,0,0,0,0,0,1.7526,1.7565,1.7594,1.765,1.7665,1.7683,1.7707,1.7711,1.7743,1.7756,1.778,1.7814,1.7857,1.7886,1.7927,1.8,1.801,1.8033,1.804,1.8046,1.8054,1.8096,1.8107,1.7989,1.7989,1.7989,0,0,1.7553,1.7577,1.7601,1.7655,1.7679,1.7722,1.7694,1.774,1.7773,1.7764,1.7825,1.7844,1.7882,1.7951,1.7982,1.7969,1.8089,1.8053,1.8057,1.8062,1.8103,1.8114,1.8124,1.7992,1.7992,1.7991,0,0,1.7623,1.7644,1.7693,1.7717,1.7753,1.7765,1.7777,1.7812,1.7823,1.7884,1.7879,1.7919,1.7993,1.8021,1.8045,1.8128,1.8123,1.8141,1.8181,1.8222,1.8231,1.8239,1.8271,1.8282,1.8148,1.8148,1.8148,0,1.7652,1.7714,1.772,1.7767,1.7792,1.7784,1.7835,1.7859,1.7907,1.7926,1.7909,1.8003,1.8028,1.8104,1.8125,1.8144,1.816,1.8137,1.8229,1.8237,1.8245,1.8276,1.8287,1.815,1.815,1.815,1.815,0,1.775,1.7793,1.7829,1.7874,1.7903,1.7952,1.7967,1.7996,1.7997,1.8012,1.8076,1.8105,1.8154,1.8172,1.8174,1.8249,1.824,1.8226,1.8197,1.8259,1.8287,1.8299,1.8153,1.8153,1.8152,1.8151,0,0,1.7837,1.7884,1.7898,1.7919,1.7958,1.7993,1.8043,1.8089,1.8115,1.8148,1.8192,1.8255,1.8243,1.827,1.8276,1.8312,1.8378,1.8294,1.8295,1.831,1.8465,1.8477,1.849,1.8374,1.8376,1.8378,1.8463,0,1.7913,1.7998,1.8005,1.8083,1.8125,1.8119,1.8162,1.8193,1.8208,1.8247,1.8265,1.831,1.8289,1.8306,1.8341,1.8362,1.8409,1.8356,1.8417,1.842,1.8409,1.8504,1.8516,1.8595,1.8474,1.8476,1.8477,0,1.8012,1.8048,1.813,1.8165,1.8183,1.8221,1.8265,1.8301,1.8337,1.8345,1.8376,1.8377,1.8431,1.8399,1.8475,1.8438,1.8464,1.8478,1.8482,1.8489,1.8453,1.8516,1.862,1.8632,1.8494,1.8493,1.8492,0,1.807,1.8139,1.8197,1.8215,1.8257,1.8285,1.8304,1.8337,1.8364,1.8403,1.8421,1.8466,1.8491,1.8527,1.8541,1.8516,1.8617,1.8585,1.8628,1.8628,1.865,1.8649,1.8761,1.8664,1.8664,1.8664,1.8663,0,1.8155,1.8206,1.8224,1.826,1.8318,1.8326,1.8383,1.8401,1.8431,1.8472,1.847,1.8509,1.8524,1.8567,1.8578,1.8641,1.8652,1.8662,1.8665,1.8663,1.8662,1.8681,1.8677,1.8667,1.8666,1.8666,1.8665,0,1.823,1.8243,1.8307,1.8341,1.8351,1.8392,1.8422,1.8459,1.8473,1.8526,1.8539,1.8562,1.8612,1.8629,1.869,1.8698,1.8771,1.8768,1.8759,1.876,1.8802,1.8798,1.8932,1.895,1.8839,1.884,1.8841,0,1.8284,1.8323,1.8361,1.8387,1.8407,1.845,1.8478,1.8488,1.8518,1.8561,1.8593,1.8642,1.8682,1.8763,1.8787,1.8834,1.8834,1.8877,1.8841,1.8839,1.8837,1.8835,1.884,1.8884,1.8885,1.8886,1.8887,0,1.8379,1.8384,1.8423,1.8465,1.8498,1.8532,1.8565,1.8588,1.8603,1.8637,1.8687,1.8718,1.878,1.883,1.8878,1.89,1.8898,1.8898,1.8911,1.891,1.8904,1.891,1.8779,1.8895,1.8895,1.8894,1.8894,1.8893,1.8446,1.8481,1.8514,1.8558,1.8584,1.8615,1.8651,1.867,1.8711,1.8761,1.8765,1.882,1.8856,1.892,1.8945,1.899,1.8978,1.8996,1.9001,1.9005,1.9009,1.8895,1.8998,1.8998,1.8998,1.8998,1.8998,0,1.8543,1.8563,1.8604,1.865,1.8685,1.8677,1.8714,1.8745,1.8792,1.8825,1.8864,1.8924,1.8972,1.9,1.9049,1.908,1.908,1.9093,1.9091,1.9097,1.9016,1.9001,1.9092,1.9092,1.9092,1.9092,1.9092,1.9092,1.8597,1.8657,1.8666,1.8739,1.876,1.8812,1.8834,1.8864,1.889,1.8955,1.8995,1.9012,1.9044,1.9096,1.9141,1.9148,1.9167,1.9181,1.9188,1.9112,1.9102,1.9093,1.9079,1.9185,1.9185,1.9265,1.9266,1.9266]},{"header":{"parameterUnit":"m.s-1","parameterCategory":1,"la1":30.2991,"la2":30.254,"lo1":-89.0895,"lo2":-89.0444,"dy":0.0017,"dx":0.0017,"nx":28,"ny":28,"refTime":"2023-08-05T03:00:00:Z","depth":0,"parameterNumber":3,"parameterNumberName":"V-component_of_WINDS"},"data":[0,0,0,0,0,0,0,0,0,0,0,0,0,0,0,0,0,0,0,0,0,0,0,0,0,0,0,0,0,0,0,0,0,0,0,0,0,0,0,0,0,0,0,0,0,0,0,0,0,0,0,0,0,0,0,0,0,0,2.1241,2.1241,0,2.1275,2.1276,2.1276,2.1276,2.1275,2.1275,2.1275,2.1308,2.1309,2.1311,0,0,0,0,0,0,0,0,0,0,0,0,0,2.117,2.1171,2.1241,2.1241,2.1241,2.1275,2.1276,2.1276,2.1276,2.1275,2.1275,2.1274,2.1308,2.1309,2.1311,0,0,0,0,0,0,0,0,0,0,0,0,0,2.1202,2.1172,2.1241,2.1245,2.1246,2.1275,2.1276,2.1276,2.1276,2.1275,2.1275,2.1274,2.1307,2.1309,2.1311,2.1336,0,0,2.1317,2.1318,0,0,0,0,0,0,0,0,2.12,2.1205,2.1244,2.1245,2.1246,2.1271,2.1263,2.1296,2.1276,2.1265,2.1275,2.1274,2.1296,2.1299,2.1307,2.1338,2.1339,2.1317,2.1318,2.1319,2.132,0,0,0,0,0,0,0,2.1198,2.1203,2.1254,2.1245,2.1246,2.1245,2.1248,2.1269,2.1284,2.1266,2.1266,2.127,2.1296,2.1305,2.1307,2.134,2.1317,2.1319,2.132,2.1321,2.139,2.1391,0,0,0,0,0,0,2.1195,2.1201,2.1253,2.1255,2.1221,2.1246,2.1251,2.1263,2.1283,2.1286,2.127,2.127,2.1302,2.1305,2.1309,2.1338,2.1319,2.1321,2.1322,2.1389,2.139,2.1391,0,0,0,0,0,0,2.1194,2.12,2.1252,2.1228,2.1235,2.1248,2.1263,2.1264,2.1273,2.1287,2.1289,2.1277,2.1301,2.1306,2.1329,2.1339,2.1322,2.1324,2.1389,2.139,2.1391,2.1397,0,0,0,0,0,0,2.1192,2.1199,2.1211,2.1229,2.1236,2.1273,2.1263,2.1266,2.1277,2.1276,2.1294,2.1296,2.1301,2.1326,2.1331,2.1341,2.1325,2.1388,2.1389,2.139,2.1396,2.1398,2.14,0,0,0,0,0,2.1189,2.1211,2.1211,2.1217,2.1251,2.1273,2.1278,2.1284,2.1278,2.1288,2.1296,2.1295,2.1337,2.1328,2.1334,2.1345,2.1387,2.1389,2.139,2.1395,2.1398,2.14,0,0,0,0,0,0,2.1194,2.1214,2.1214,2.1243,2.1256,2.1273,2.1287,2.1287,2.1302,2.1301,2.1307,2.1311,2.1334,2.1342,2.1332,2.1369,2.1361,2.1364,2.1363,2.1365,2.1367,2.1365,2.1327,0,0,0,0,0,2.1199,2.1217,2.1233,2.1256,2.1263,2.1274,2.1284,2.1287,2.1301,2.1307,2.1318,2.133,2.1346,2.1356,2.1372,2.1397,2.1399,2.1407,2.1409,2.1411,2.1413,2.1424,2.1426,2.1396,2.1396,2.1396,0,0,2.1208,2.1221,2.1232,2.1258,2.1269,2.1285,2.1279,2.1298,2.1309,2.131,2.1332,2.1339,2.1354,2.1377,2.1388,2.1385,2.1421,2.1413,2.1414,2.1415,2.1425,2.1428,2.1431,2.1397,2.1397,2.1397,0,0,2.1233,2.1246,2.1266,2.1276,2.1293,2.1299,2.1304,2.132,2.1325,2.1347,2.1347,2.1361,2.1388,2.1398,2.1406,2.1432,2.143,2.1436,2.1447,2.1457,2.146,2.1462,2.1469,2.1471,2.1438,2.1439,2.1439,0,2.1243,2.1269,2.1276,2.1294,2.1304,2.1305,2.1323,2.1333,2.1353,2.1359,2.1355,2.1388,2.1398,2.1422,2.1428,2.1436,2.1439,2.1434,2.1459,2.1461,2.1463,2.147,2.1473,2.1439,2.1439,2.1439,2.1439,0,2.1278,2.1296,2.131,2.1329,2.1341,2.1359,2.1367,2.1377,2.1379,2.1385,2.1406,2.1418,2.1434,2.144,2.1443,2.1464,2.1461,2.1458,2.145,2.1466,2.1473,2.1475,2.144,2.144,2.1439,2.1439,0,0,2.1309,2.133,2.1335,2.1342,2.1359,2.1372,2.1389,2.1405,2.1413,2.1426,2.1439,2.1461,2.1458,2.1467,2.147,2.148,2.1496,2.1475,2.1475,2.1477,2.1517,2.1519,2.1522,2.1495,2.1496,2.1496,2.1515,0,2.1335,2.1366,2.1371,2.1397,2.1412,2.1412,2.1426,2.1437,2.1442,2.1455,2.1461,2.1475,2.1471,2.1476,2.1486,2.1492,2.1504,2.1491,2.1506,2.1506,2.1501,2.1525,2.1527,2.1545,2.1518,2.1519,2.1519,0,2.1369,2.1382,2.141,2.1422,2.1429,2.1442,2.1455,2.1468,2.1479,2.1482,2.1491,2.1492,2.1508,2.15,2.152,2.1511,2.1517,2.1521,2.1521,2.1522,2.1513,2.1525,2.1551,2.1553,2.1523,2.1523,2.1523,0,2.1385,2.1411,2.143,2.1436,2.1451,2.146,2.1466,2.1477,2.1485,2.1497,2.1502,2.1515,2.1522,2.1532,2.1535,2.1529,2.1554,2.1547,2.1556,2.1556,2.1561,2.156,2.1587,2.1567,2.1567,2.1567,2.1567,0,2.1413,2.1429,2.1437,2.1449,2.1466,2.1471,2.1488,2.1494,2.1503,2.1514,2.1515,2.1525,2.153,2.1541,2.1544,2.1559,2.1563,2.1564,2.1565,2.1564,2.1563,2.1567,2.1566,2.1568,2.1567,2.1567,2.1567,0,2.1434,2.144,2.1461,2.1473,2.1476,2.1488,2.1498,2.1508,2.1513,2.1527,2.153,2.1538,2.155,2.1555,2.1571,2.1572,2.1589,2.1589,2.1585,2.1585,2.1593,2.1592,2.1622,2.1625,2.1605,2.1605,2.1605,0,2.145,2.1463,2.1475,2.1483,2.149,2.1503,2.1511,2.1515,2.1523,2.1535,2.1543,2.1556,2.1566,2.1586,2.1592,2.1603,2.1602,2.1612,2.1604,2.1602,2.16,2.1599,2.1599,2.1613,2.1613,2.1614,2.1614,0,2.1478,2.1479,2.1492,2.1504,2.1513,2.1523,2.1533,2.1539,2.1544,2.1553,2.1566,2.1573,2.1588,2.16,2.1611,2.1616,2.1615,2.1616,2.1619,2.1617,2.1614,2.1614,2.1588,2.1615,2.1615,2.1615,2.1615,2.1615,2.1496,2.1506,2.1515,2.1528,2.1535,2.1544,2.1553,2.1559,2.1569,2.1582,2.1583,2.1596,2.1605,2.1619,2.1625,2.1634,2.1632,2.1636,2.1636,2.1637,2.1636,2.1613,2.1636,2.1636,2.1636,2.1636,2.1636,0,2.1521,2.1527,2.1539,2.1551,2.156,2.1559,2.1569,2.1576,2.1588,2.1596,2.1605,2.1619,2.1629,2.1636,2.1646,2.1652,2.1651,2.1654,2.1653,2.1654,2.1639,2.1635,2.1654,2.1654,2.1654,2.1654,2.1654,2.1654,2.1536,2.1552,2.1554,2.1573,2.1578,2.1591,2.1596,2.1603,2.161,2.1624,2.1633,2.1637,2.1644,2.1654,2.1663,2.1665,2.1668,2.1671,2.1672,2.1657,2.1656,2.1654,2.165,2.1672,2.1672,2.1686,2.1686,2.1686]}]]